• In Belarus
  • List of Countries
  • For 7 days
  • Water Temperature
  • Satellite Maps
  • Weather Map
  • Weather Widgets
  • user-avatar
    Login

    Hourly Weather Vratsa

    Today, 21 January, Sunday

    Time Temperature Precipitation Wind Pressure Humidity
    00:00 -2°C° 0 mm 1 mps 704 mmHg 87%
    01:00 -2°C° 0 mm 1 mps 704 mmHg 86%
    02:00 -2°C° 0 mm 1 mps 704 mmHg 85%
    03:00 -2°C° 0 mm 1 mps 703 mmHg 84%
    04:00 -2°C° 0 mm 1 mps 703 mmHg 83%
    05:00 -2°C° 0 mm 1 mps 703 mmHg 81%
    06:00 -2°C° 0 mm 1 mps 703 mmHg 81%
    07:00 -1°C° 0 mm 1 mps 702 mmHg 80%
    08:00 -3°C° 0 mm 2 mps 702 mmHg 80%
    09:00 -2°C° 0 mm 2 mps 702 mmHg 80%
    10:00 -1°C° 0 mm 2 mps 702 mmHg 80%
    11:00 +1°C° 0 mm 2 mps 702 mmHg 80%
    12:00 +1°C° 0.1 mm 2 mps 701 mmHg 81%
    13:00 +2°C° 0.1 mm 2 mps 701 mmHg 83%
    14:00 +3°C° 0.1 mm 1 mps 700 mmHg 84%
    15:00 +3°C° 0.2 mm 1 mps 700 mmHg 86%
    16:00 +2°C° 0.2 mm 1 mps 699 mmHg 89%
    17:00 +2°C° 0.2 mm 1 mps 699 mmHg 91%
    18:00 +1°C° 0.2 mm 1 mps 698 mmHg 92%
    19:00 +1°C° 0.2 mm 1 mps 698 mmHg 93%
    20:00 +1°C° 0.2 mm 1 mps 698 mmHg 94%
    21:00 -2°C° 1.1 mm 2 mps 698 mmHg 95%
    22:00 -2°C° 1.1 mm 2 mps 698 mmHg 96%
    23:00 -2°C° 1.1 mm 2 mps 698 mmHg 97%

    Tomorrow, 22 January, Monday

    Time Temperature Precipitation Wind Pressure Humidity
    00:00 -2°C° 1.3 mm 3 mps 698 mmHg 96%
    01:00 -2°C° 1.3 mm 3 mps 699 mmHg 96%
    02:00 -3°C° 1.3 mm 4 mps 699 mmHg 96%
    03:00 -4°C° 0.4 mm 4 mps 699 mmHg 95%
    04:00 -4°C° 0.4 mm 4 mps 699 mmHg 94%
    05:00 -4°C° 0.4 mm 4 mps 700 mmHg 93%
    06:00 -4°C° 0.2 mm 4 mps 700 mmHg 91%
    07:00 -4°C° 0.2 mm 4 mps 700 mmHg 90%
    08:00 -4°C° 0.2 mm 4 mps 701 mmHg 88%
    09:00 -4°C° 0.1 mm 4 mps 701 mmHg 87%
    10:00 -3°C° 0.1 mm 4 mps 701 mmHg 85%
    11:00 -4°C° 0.1 mm 5 mps 702 mmHg 84%
    12:00 -4°C° 0.1 mm 5 mps 702 mmHg 84%
    13:00 -4°C° 0.1 mm 5 mps 702 mmHg 85%
    14:00 -4°C° 0.1 mm 5 mps 702 mmHg 85%
    15:00 -3°C° 0.1 mm 4 mps 702 mmHg 85%
    16:00 -3°C° 0.1 mm 4 mps 703 mmHg 85%
    17:00 -4°C° 0.1 mm 4 mps 703 mmHg 84%
    18:00 -5°C° 0.1 mm 3 mps 704 mmHg 85%
    19:00 -5°C° 0.1 mm 3 mps 704 mmHg 86%
    20:00 -6°C° 0.1 mm 3 mps 705 mmHg 86%
    21:00 -6°C° 0 mm 3 mps 705 mmHg 87%
    22:00 -6°C° 0 mm 2 mps 706 mmHg 87%
    23:00 -6°C° 0 mm 2 mps 706 mmHg 87%

    Day after tomorrow, 23 January, Tuesday

    Time Temperature Precipitation Wind Pressure Humidity
    00:00 -6°C° 0 mm 2 mps 707 mmHg 87%
    01:00 -6°C° 0 mm 2 mps 707 mmHg 87%
    02:00 -6°C° 0 mm 2 mps 707 mmHg 88%
    03:00 -7°C° 0 mm 2 mps 707 mmHg 88%
    04:00 -7°C° 0 mm 2 mps 708 mmHg 88%
    05:00 -7°C° 0 mm 2 mps 708 mmHg 88%
    06:00 -7°C° 0 mm 2 mps 709 mmHg 88%
    07:00 -6°C° 0 mm 1 mps 709 mmHg 87%
    08:00 -6°C° 0 mm 1 mps 710 mmHg 87%
    09:00 -4°C° 0 mm 1 mps 710 mmHg 85%
    10:00 -3°C° 0 mm 1 mps 711 mmHg 83%
    11:00 -1°C° 0 mm 1 mps 712 mmHg 81%
    12:00 -1°C° 0 mm 1 mps 712 mmHg 81%
    13:00 -1°C° 0 mm 1 mps 712 mmHg 81%
    14:00 0°C° 0 mm 1 mps 712 mmHg 82%
    15:00 -1°C° 0 mm 1 mps 712 mmHg 84%
    16:00 -2°C° 0 mm 1 mps 713 mmHg 86%
    17:00 -2°C° 0 mm 1 mps 713 mmHg 89%
    18:00 -3°C° 0 mm 1 mps 714 mmHg 89%
    19:00 -3°C° 0 mm 1 mps 714 mmHg 90%
    20:00 -4°C° 0 mm 1 mps 715 mmHg 91%
    21:00 -4°C° 0 mm 1 mps 715 mmHg 90%
    22:00 -6°C° 0 mm 1 mps 716 mmHg 89%
    23:00 -6°C° 0 mm 1 mps 716 mmHg 89%

    24 January, Wednesday

    Time Temperature Precipitation Wind Pressure Humidity
    00:00 -6°C° 0 mm 1 mps 716 mmHg 88%
    01:00 -6°C° 0 mm 1 mps 717 mmHg 87%
    02:00 -6°C° 0 mm 0 mps 717 mmHg 86%
    03:00 -6°C° 0 mm 0 mps 717 mmHg 86%
    04:00 -7°C° 0 mm 1 mps 717 mmHg 85%
    05:00 -7°C° 0 mm 1 mps 718 mmHg 84%
    06:00 -7°C° 0 mm 1 mps 718 mmHg 83%
    07:00 -7°C° 0 mm 1 mps 718 mmHg 83%
    08:00 -7°C° 0 mm 1 mps 719 mmHg 82%
    09:00 -6°C° 0 mm 1 mps 719 mmHg 79%
    10:00 -3°C° 0 mm 1 mps 719 mmHg 76%
    11:00 -2°C° 0 mm 1 mps 720 mmHg 73%
    12:00 -1°C° 0 mm 1 mps 719 mmHg 71%
    13:00 -1°C° 0 mm 1 mps 719 mmHg 69%
    14:00 0°C° 0 mm 1 mps 719 mmHg 68%
    15:00 -1°C° 0 mm 1 mps 719 mmHg 71%
    16:00 -2°C° 0 mm 1 mps 718 mmHg 74%
    17:00 -3°C° 0 mm 1 mps 718 mmHg 78%
    18:00 -4°C° 0 mm 1 mps 718 mmHg 77%
    19:00 -6°C° 0 mm 1 mps 718 mmHg 76%
    20:00 -6°C° 0 mm 1 mps 718 mmHg 76%
    21:00 -6°C° 0 mm 1 mps 718 mmHg 73%
    22:00 -7°C° 0 mm 1 mps 718 mmHg 71%
    23:00 -7°C° 0 mm 1 mps 718 mmHg 69%

    25 January, Thursday

    Time Temperature Precipitation Wind Pressure Humidity
    00:00 -7°C° 0 mm 1 mps 718 mmHg 67%
    01:00 -7°C° 0 mm 1 mps 717 mmHg 66%
    02:00 -7°C° 0 mm 1 mps 717 mmHg 64%
    03:00 -7°C° 0 mm 1 mps 716 mmHg 63%
    04:00 -7°C° 0 mm 1 mps 716 mmHg 63%
    05:00 -7°C° 0 mm 1 mps 716 mmHg 62%
    06:00 -7°C° 0 mm 1 mps 715 mmHg 62%
    07:00 -7°C° 0 mm 1 mps 715 mmHg 62%
    08:00 -7°C° 0 mm 1 mps 715 mmHg 62%
    09:00 -6°C° 0 mm 1 mps 715 mmHg 61%
    10:00 -3°C° 0 mm 1 mps 715 mmHg 59%
    11:00 -2°C° 0 mm 0 mps 715 mmHg 58%
    12:00 -1°C° 0 mm 1 mps 714 mmHg 58%
    13:00 0°C° 0 mm 1 mps 714 mmHg 59%
    14:00 +1°C° 0 mm 1 mps 713 mmHg 59%
    15:00 0°C° 0 mm 1 mps 713 mmHg 65%
    16:00 -2°C° 0 mm 1 mps 713 mmHg 70%
    17:00 -3°C° 0 mm 1 mps 712 mmHg 75%
    18:00 -3°C° 0 mm 1 mps 713 mmHg 76%
    19:00 -4°C° 0 mm 1 mps 713 mmHg 77%
    20:00 -7°C° 0 mm 2 mps 713 mmHg 78%
    21:00 -7°C° 0 mm 2 mps 713 mmHg 77%
    22:00 -7°C° 0 mm 2 mps 714 mmHg 76%
    23:00 -8°C° 0 mm 2 mps 714 mmHg 75%

    26 January, Friday

    Time Temperature Precipitation Wind Pressure Humidity
    00:00 -8°C° 0 mm 2 mps 714 mmHg 75%
    01:00 -8°C° 0 mm 2 mps 714 mmHg 76%
    02:00 -9°C° 0 mm 2 mps 714 mmHg 76%
    03:00 -9°C° 0 mm 2 mps 714 mmHg 77%
    04:00 -9°C° 0 mm 2 mps 714 mmHg 77%
    05:00 -9°C° 0 mm 2 mps 714 mmHg 78%
    06:00 -8°C° 0 mm 1 mps 714 mmHg 78%
    07:00 -9°C° 0 mm 1 mps 714 mmHg 78%
    08:00 -9°C° 0 mm 1 mps 715 mmHg 78%
    09:00 -7°C° 0 mm 1 mps 715 mmHg 76%
    10:00 -6°C° 0 mm 1 mps 715 mmHg 74%
    11:00 -4°C° 0 mm 1 mps 715 mmHg 72%
    12:00 -3°C° 0 mm 1 mps 715 mmHg 72%
    13:00 -2°C° 0 mm 1 mps 715 mmHg 72%
    14:00 -2°C° 0 mm 1 mps 714 mmHg 72%
    15:00 -2°C° 0 mm 1 mps 714 mmHg 75%
    16:00 -3°C° 0 mm 1 mps 714 mmHg 79%
    17:00 -4°C° 0 mm 1 mps 714 mmHg 83%
    18:00 -4°C° 0 mm 1 mps 714 mmHg 83%
    19:00 -6°C° 0 mm 1 mps 714 mmHg 83%
    20:00 -6°C° 0 mm 1 mps 714 mmHg 83%
    21:00 -6°C° 0 mm 1 mps 714 mmHg 82%
    22:00 -6°C° 0 mm 1 mps 715 mmHg 81%
    23:00 -6°C° 0 mm 1 mps 715 mmHg 79%
    Show more